Theta_e
317 320 323 324 319 316 315 316 313 314 314 312 313 313 314 311 316 319 314 315 316 316 317 318 320 320 319 325 328 330 330 331 332 333 332 332 332 332 331 331 331 330 330 328 326 325 325 324 322
318 319 323 320 317 317 316 312 314 313 312 312 313 312 311 311 311 312 313 312 312 314 314 315 315 315 316 315 318 324 326 328 328 327 327 327 327 327 329 331 332 331 331 329 328 327 323 324 325
318 322 322 313 312 317 316 312 312 311 312 311 310 310 310 310 310 311 312 311 310 310 311 313 313 313 314 314 313 314 317 320 322 324 326 327 326 326 326 326 325 327 329 330 330 329 329 327 324
319 319 314 315 315 313 313 311 311 310 310 311 311 308 309 310 310 309 309 308 307 307 307 308 307 307 308 310 311 312 312 312 313 314 316 317 319 322 324 325 326 325 325 324 325 328 329 329 330
319 318 313 313 313 312 310 311 312 310 311 310 311 309 307 309 308 307 305 305 304 305 305 306 306 306 307 307 307 308 308 308 308 309 309 310 310 312 313 315 318 323 326 326 325 324 324 327 327
318 314 315 315 312 312 311 312 312 311 310 310 310 307 307 308 307 305 304 303 303 304 304 305 305 306 306 306 306 306 304 303 303 302 302 302 303 305 307 309 310 312 315 318 322 323 322 321 324
316 313 314 312 312 313 312 311 310 310 309 310 310 306 307 306 305 304 304 303 303 304 304 304 305 305 304 303 302 302 302 302 302 302 302 302 302 302 302 302 303 306 308 311 314 318 321 322 322
316 311 311 310 312 314 311 311 310 312 310 310 310 308 307 308 305 303 303 303 303 303 303 303 303 302 302 301 301 301 301 301 301 301 301 301 301 301 301 301 301 301 301 304 307 310 317 318 318
317 313 314 313 311 313 310 310 310 310 310 309 309 309 309 308 306 304 303 303 303 303 303 303 302 301 300 300 300 300 300 301 301 301 301 301 301 301 301 300 300 299 299 299 299 303 306 311 320
312 312 314 311 309 312 310 311 310 309 308 308 309 309 309 308 307 306 305 304 303 303 302 302 301 300 300 299 300 300 300 300 300 300 300 300 300 300 300 300 300 300 299 299 299 299 299 302 305
311 311 312 313 313 312 311 310 310 308 307 311 313 312 309 307 306 305 304 303 303 302 302 301 300 300 300 300 300 299 299 299 299 299 299 299 299 299 299 299 299 299 299 299 299 299 299 299 299
314 312 313 314 313 312 311 310 308 309 313 313 312 311 310 308 307 306 304 303 303 302 301 300 300 300 300 300 299 299 299 299 299 299 298 299 299 299 298 298 298 298 298 299 299 299 299 298 298
312 312 313 313 313 312 311 310 309 308 312 311 311 311 309 308 307 305 303 302 301 301 302 301 300 299 299 299 298 298 298 298 298 297 297 297 297 297 297 296 296 296 296 297 297 297 298 298 298
311 312 312 312 312 311 310 309 309 311 312 311 310 310 309 308 307 304 303 301 301 301 301 299 298 297 297 297 297 297 297 297 297 296 296 296 296 296 296 296 296 296 296 296 296 296 296 296 297
311 311 308 309 310 310 309 308 307 312 310 310 310 309 308 307 305 306 305 303 302 300 299 298 297 296 296 296 297 297 296 296 296 296 296 295 295 295 294 295 295 295 295 295 295 295 295 295 296
310 308 312 310 308 309 309 312 309 311 309 310 309 308 307 307 306 305 303 302 300 298 298 297 296 295 296 296 296 296 295 295 295 295 294 294 294 294 294 294 294 294 294 294 294 294 294 294 294
308 312 311 310 307 308 307 311 309 310 307 307 308 307 306 306 304 304 302 301 300 298 298 297 296 295 295 295 295 295 295 295 295 294 294 293 293 293 292 292 292 292 292 292 292 292 292 293 293
309 311 309 309 309 307 307 307 309 308 308 307 307 307 305 305 307 305 302 300 298 298 297 296 295 295 294 294 294 294 295 295 295 294 293 293 292 292 291 291 291 291 291 291 291 291 291 292 292
311 310 310 307 305 307 306 308 309 310 306 304 306 304 305 307 306 304 302 300 297 296 296 296 295 294 294 294 294 294 294 295 294 294 292 291 291 291 292 291 291 291 291 291 290 290 290 290 291
308 309 307 306 305 304 305 306 307 307 309 308 306 304 305 305 304 304 302 299 298 297 296 295 294 293 293 293 293 293 294 295 294 292 291 291 291 291 291 291 290 289 289 289 289 289 290 290 290
307 307 307 308 304 302 302 303 303 304 305 307 307 306 307 307 306 304 302 300 298 296 295 295 294 292 292 292 292 292 293 293 293 292 292 291 291 290 290 289 289 288 288 288 288 288 289 289 289
310 305 306 306 306 308 303 310 306 305 306 305 307 307 309 308 307 304 303 301 298 296 295 294 292 291 291 291 292 292 292 292 291 290 290 290 289 288 288 288 288 288 288 288 287 288 288 287 287
309 304 304 304 304 302 303 304 307 301 306 308 307 309 309 308 308 307 305 303 301 296 295 294 292 291 291 291 291 291 291 291 291 290 289 288 288 288 288 288 287 287 287 287 287 287 287 286 285
302 304 302 298 300 305 307 307 305 304 305 306 306 309 309 309 308 306 303 300 299 297 294 293 291 291 291 291 291 290 291 290 290 289 288 287 288 288 287 287 287 286 286 286 286 286 286 285 284
304 307 310 308 306 311 300 302 309 306 303 305 308 309 308 306 306 305 302 300 298 297 294 293 291 291 291 291 291 290 290 289 289 288 287 287 288 287 287 286 286 285 285 285 285 285 285 283 280
303 307 310 307 307 309 299 305 309 303 306 306 306 308 305 306 305 304 303 301 299 297 294 293 291 291 291 291 290 290 289 288 288 287 287 287 287 286 286 285 285 284 284 285 285 284 284 281 278
304 306 305 306 288 301 308 305 304 302 301 300 301 301 303 304 306 306 304 301 298 297 294 293 291 291 291 290 290 290 288 287 287 287 287 287 286 286 285 284 284 284 284 284 284 283 282 278 276
302 301 306 304 307 304 308 308 309 307 306 304 301 301 304 306 306 307 305 301 298 296 294 292 291 291 290 290 290 289 288 287 287 287 287 286 285 285 284 284 284 284 284 284 282 282 279 276 275
300 301 301 303 304 307 308 310 304 306 304 305 303 305 305 307 308 308 306 303 299 296 293 292 291 290 290 289 289 288 287 286 286 286 286 285 285 285 284 284 284 284 284 283 282 280 277 275 273
300 303 304 307 306 300 302 310 306 306 303 301 304 305 306 307 307 306 305 303 299 294 292 291 290 290 289 289 288 287 286 286 286 286 286 285 285 284 283 283 283 283 283 283 280 279 276 273 272
Wind_Speed
6 5 3 1 3 4 1 3 1 3 3 2 5 4 5 5 2 3 9 3 2 3 5 5 4 5 6 6 6 6 5 5 6 5 6 6 6 6 8 10 11 11 11 12 11 11 11 12 13
4 3 2 3 4 3 2 2 5 4 9 18 14 9 3 2 5 6 10 4 2 3 6 6 5 5 5 6 8 9 9 10 10 11 10 9 10 10 10 10 10 12 13 14 14 14 14 13 13
4 3 1 4 3 4 4 4 5 5 21 6 5 3 6 6 9 10 10 6 3 4 4 5 5 5 4 4 5 7 9 12 13 13 13 13 13 13 13 15 15 15 15 14 14 16 16 16 16
2 1 4 3 3 3 3 5 7 14 6 6 7 4 6 10 12 11 11 7 4 2 2 1 2 4 3 2 2 4 5 6 8 10 12 15 17 18 18 17 17 17 18 19 18 17 17 17 18
4 1 3 3 2 2 4 8 24 8 6 7 11 5 5 12 13 13 11 9 6 4 2 0 2 3 3 3 3 3 3 3 4 5 7 9 12 15 19 21 22 22 23 22 22 22 21 20 21
2 2 3 2 3 3 3 9 11 9 6 9 6 10 7 13 17 15 13 10 7 5 4 2 1 2 4 4 4 5 6 7 8 9 11 12 14 15 16 17 20 23 25 25 26 25 24 24 24
5 3 3 2 3 2 5 11 8 11 11 9 6 8 6 21 21 17 14 12 11 9 6 4 3 4 3 4 4 5 6 8 9 10 12 13 15 17 19 20 22 22 23 25 27 27 27 28 28
4 5 3 3 4 5 8 9 5 10 6 7 13 6 5 24 25 21 18 16 13 11 8 7 6 5 3 3 4 4 4 5 7 8 10 11 13 15 17 19 21 23 24 26 26 27 29 30 31
3 4 1 4 5 3 9 3 6 5 6 13 14 11 7 19 27 25 22 19 16 14 11 10 8 6 4 3 2 2 3 5 6 8 9 11 13 15 18 19 20 20 21 21 24 26 27 29 31
3 3 6 4 4 2 6 6 9 5 7 11 17 20 14 18 28 28 26 23 19 15 13 11 9 7 6 3 3 4 6 7 9 11 12 13 14 16 18 19 22 23 23 22 22 23 26 29 30
2 5 4 3 6 3 4 4 8 7 5 18 21 25 21 24 29 28 25 22 19 18 15 13 11 9 7 5 4 5 6 8 10 12 13 15 16 18 20 21 22 22 23 24 24 23 24 25 29
1 2 3 3 4 3 4 4 6 18 18 12 13 17 23 28 32 32 30 27 24 21 18 15 12 10 9 7 5 5 6 8 10 12 14 16 17 19 22 24 25 26 26 26 27 28 29 27 26
2 2 3 5 7 6 7 11 8 19 20 24 19 17 23 29 31 30 27 26 26 23 21 16 14 12 10 8 5 5 6 9 12 14 17 19 21 22 24 26 27 28 28 28 27 28 30 32 32
3 4 7 5 7 6 4 4 2 8 6 18 23 24 27 31 33 32 33 31 29 26 22 18 16 12 10 7 6 6 8 10 13 16 19 21 23 25 26 28 31 32 32 32 32 33 33 33 34
1 3 5 5 3 4 5 8 10 22 16 17 20 24 28 32 33 36 34 32 29 26 22 19 15 11 9 6 7 8 9 11 14 16 18 20 22 23 26 28 31 33 34 35 35 35 37 38 37
2 3 1 3 5 2 6 10 9 13 16 22 23 26 30 33 37 36 33 31 29 26 22 19 16 13 10 9 8 7 8 10 13 16 19 22 24 25 26 28 31 33 34 35 36 38 39 40 43
5 4 4 7 11 2 6 10 6 9 15 23 27 30 33 35 38 38 37 35 33 28 25 22 18 14 12 11 9 8 8 10 14 17 20 22 23 25 26 29 30 33 34 36 37 38 40 43 44
6 4 5 6 4 4 5 17 17 20 24 36 35 35 35 39 44 41 41 38 35 31 28 25 20 17 15 13 11 9 8 11 15 17 19 21 22 25 27 31 32 34 36 38 39 40 40 42 45
3 4 7 4 4 4 9 17 20 31 22 28 35 34 37 42 41 42 42 40 37 34 32 28 23 20 17 15 12 9 9 12 15 18 19 21 23 26 30 33 35 35 37 38 39 41 43 43 42
3 3 7 7 2 6 8 18 15 17 26 27 33 31 37 35 37 39 44 44 44 40 35 31 26 22 18 15 13 12 11 13 17 18 20 23 25 27 31 33 34 35 37 39 40 41 44 46 43
5 6 5 8 4 4 7 9 7 7 15 30 32 34 31 32 32 35 41 49 47 44 39 33 28 23 19 16 14 13 13 16 18 20 21 23 26 27 30 31 33 34 37 39 40 41 42 45 46
5 6 3 2 2 4 3 15 4 7 10 9 23 25 29 29 28 30 34 46 51 48 40 33 29 25 21 18 15 14 16 18 21 24 25 26 26 28 31 33 34 35 36 37 39 41 44 44 48
7 3 4 1 3 3 4 5 4 3 8 18 9 21 22 22 22 25 29 34 48 49 43 36 30 27 23 19 16 16 17 20 23 25 27 27 29 31 31 33 34 34 36 37 39 42 44 45 46
5 4 4 3 2 2 8 10 5 6 9 8 11 25 17 15 16 20 24 28 38 48 43 37 33 29 25 20 18 17 19 22 24 26 28 29 32 34 32 33 33 35 36 39 41 43 45 46 48
3 5 4 5 2 9 5 4 13 6 10 12 14 22 15 15 17 19 23 28 34 43 47 42 37 32 27 23 20 18 20 22 25 26 29 31 34 34 33 34 35 35 37 39 42 45 47 47 46
6 8 6 9 5 20 4 9 10 16 23 21 22 27 23 18 16 19 21 26 30 37 49 44 38 33 29 24 20 18 20 22 24 25 28 32 34 35 35 35 36 38 40 41 44 47 49 49 47
5 6 3 2 2 5 6 13 6 6 12 5 22 22 23 20 19 19 21 26 30 35 49 46 38 33 30 25 20 19 20 22 24 25 28 32 33 35 35 36 38 40 42 44 47 50 50 47 43
5 4 3 1 3 7 17 28 18 11 15 11 11 24 30 21 17 18 23 25 29 34 45 43 38 34 29 23 20 20 20 22 23 25 28 30 32 34 36 38 40 42 44 46 46 50 49 44 43
3 3 1 2 4 6 13 16 5 8 10 12 12 21 18 15 16 20 22 24 28 33 45 44 39 34 27 22 20 19 20 21 22 25 28 31 34 36 38 40 42 44 46 47 48 48 47 43 40
3 9 10 6 7 4 2 29 3 1 9 7 12 11 13 16 18 20 25 26 30 38 47 45 39 33 26 20 18 18 19 20 22 25 28 31 35 37 39 41 43 45 47 49 47 47 45 39 40
Wind_Direction
147 148 125 150 65 65 120 217 166 154 162 188 160 183 155 96 143 172 148 150 281 304 305 294 289 280 265 257 248 249 248 237 234 234 230 236 257 270 282 287 286 289 290 292 293 294 295 301 300
143 161 157 118 87 78 259 226 201 190 136 118 110 110 98 132 145 163 176 188 231 279 289 295 301 290 274 259 254 257 260 258 260 262 265 273 270 266 262 262 268 279 287 287 286 285 284 291 295
143 155 198 97 118 162 188 198 177 144 149 153 129 142 156 158 162 166 185 198 216 257 285 308 318 319 309 287 276 266 259 261 266 270 271 275 280 281 278 278 281 279 278 279 284 287 289 286 285
165 144 59 82 164 215 201 170 157 142 196 190 168 138 164 174 169 176 178 183 197 173 115 114 67 44 37 359 314 295 290 284 283 283 283 281 282 283 283 283 281 280 280 279 276 275 274 274 278
162 93 59 91 218 230 235 179 165 167 175 172 172 184 184 180 182 179 178 178 172 149 141 56 4 13 7 2 2 356 351 342 329 317 307 301 293 287 285 283 282 281 279 276 275 276 274 270 270
102 80 63 235 233 239 248 178 171 181 174 170 185 156 187 188 186 183 183 180 177 189 201 214 276 318 310 314 319 325 337 341 339 333 327 319 312 307 302 298 289 282 278 276 278 279 274 271 272
127 91 202 200 231 219 214 168 182 178 173 210 187 155 212 188 187 189 187 191 202 210 219 233 253 269 277 294 315 331 335 335 334 331 328 323 317 312 306 300 295 294 293 288 282 276 274 274 270
121 90 124 232 207 253 177 168 189 179 196 190 188 202 221 196 190 191 194 199 207 215 220 227 235 242 258 281 293 312 326 332 339 337 333 326 321 316 310 305 299 294 290 287 286 283 278 273 270
126 70 210 234 159 245 170 158 181 206 181 191 204 215 217 188 194 196 202 205 211 216 222 225 223 224 231 247 266 316 347 357 354 346 343 340 335 328 322 317 312 309 302 295 287 282 280 278 273
101 114 217 195 207 254 191 195 188 187 205 226 230 230 221 199 202 204 205 208 212 217 220 224 228 233 240 260 315 342 351 354 355 355 351 347 344 340 336 329 322 317 313 309 301 295 286 279 279
159 166 208 230 234 256 181 222 192 191 230 230 232 233 219 206 206 206 208 214 218 220 222 227 229 234 243 258 281 317 339 351 353 352 349 348 343 339 337 333 328 325 321 315 311 306 300 295 287
167 191 211 267 212 191 201 196 220 218 242 259 257 252 224 208 207 207 209 213 218 219 222 225 231 239 247 256 279 311 335 343 346 344 345 343 340 338 336 335 333 330 327 324 321 316 313 308 300
165 238 226 259 245 240 245 241 240 253 260 254 253 240 225 214 214 212 215 217 217 218 224 228 232 235 241 249 270 298 323 336 342 343 342 340 339 339 339 336 332 331 330 328 326 323 318 314 309
186 264 272 270 246 247 235 273 251 247 239 244 242 241 227 220 216 211 213 216 220 222 223 225 228 227 233 248 271 298 324 337 340 341 340 338 336 335 334 333 330 328 327 328 327 325 322 318 314
157 316 319 231 226 239 206 286 230 256 256 252 241 236 229 223 218 222 224 224 224 223 223 225 228 231 243 269 293 311 323 333 338 336 331 329 329 331 333 330 326 325 326 326 324 324 322 319 315
82 61 38 211 166 221 158 266 266 252 242 249 245 238 229 225 223 225 225 226 224 223 225 229 231 237 250 259 268 289 311 325 331 331 331 330 330 329 329 327 323 322 322 323 323 323 321 320 319
1 249 223 300 202 143 181 272 239 245 241 254 251 244 233 227 226 227 226 226 226 226 228 230 232 237 243 246 256 275 300 323 331 332 331 328 326 322 327 325 323 321 321 323 323 322 320 318 316
225 245 251 240 221 208 210 256 271 258 260 262 262 254 239 234 235 230 226 225 225 225 226 229 232 236 239 241 250 266 301 325 332 330 325 321 318 323 328 322 321 321 322 322 321 318 317 316 316
163 197 237 246 231 206 232 249 258 272 249 254 256 249 250 246 245 235 230 227 224 224 225 228 231 234 237 239 248 267 296 319 326 328 321 317 323 328 323 319 318 318 317 317 318 317 317 315 315
166 213 259 284 262 198 272 262 259 255 259 256 256 249 258 257 247 240 231 227 226 226 224 225 228 233 235 239 250 269 296 312 323 322 318 321 323 324 317 315 316 317 317 318 318 317 315 313 316
205 195 226 234 338 254 313 268 236 274 249 264 256 259 260 254 249 243 231 226 224 223 223 224 228 230 234 240 255 275 295 307 315 317 320 321 317 317 314 315 316 317 317 317 316 315 313 310 307
236 208 205 289 36 251 0 296 243 245 269 256 266 251 253 250 247 246 238 229 225 224 221 224 226 229 233 242 257 276 294 306 316 318 319 315 318 321 319 318 317 315 312 312 312 312 309 307 305
226 120 138 147 212 26 255 270 233 14 265 263 265 261 255 250 249 249 247 239 231 224 220 221 225 227 233 246 261 277 293 306 313 314 312 316 322 318 317 316 314 312 310 309 309 307 305 302 301
137 98 68 65 105 243 224 202 165 182 212 256 267 260 256 246 255 256 253 243 235 224 219 221 223 228 233 246 264 279 294 301 308 312 316 320 318 318 318 315 312 311 310 309 308 306 303 301 299
94 67 321 312 329 253 140 211 259 229 232 221 237 254 245 264 263 252 243 237 233 224 217 219 222 226 232 243 258 276 290 300 306 313 314 318 316 317 318 314 312 312 311 310 309 306 304 301 296
170 168 168 250 263 290 141 245 274 223 241 240 245 258 263 252 251 249 246 246 237 224 218 220 221 224 232 243 258 275 288 298 306 310 314 316 316 317 316 316 316 316 314 312 309 307 306 302 296
180 187 167 92 121 296 242 263 288 222 258 260 251 248 244 249 252 252 249 247 237 226 218 220 220 225 232 243 259 275 287 298 303 309 314 313 314 315 318 319 317 316 314 313 311 308 305 299 292
183 162 92 357 256 260 270 276 270 216 236 239 246 243 244 249 242 247 249 248 238 229 218 219 222 227 233 245 260 274 287 295 304 311 313 313 316 319 319 319 317 315 314 313 310 307 303 294 289
136 211 224 187 158 205 276 283 183 186 201 217 235 256 237 228 250 245 252 255 239 226 217 218 221 225 233 247 263 278 290 301 308 314 316 317 317 318 318 316 314 315 315 313 309 306 301 294 288
179 193 174 193 238 238 137 271 347 61 214 217 235 215 227 245 251 246 263 251 232 218 217 217 219 224 232 246 264 280 292 301 308 312 314 316 318 318 317 316 315 316 314 313 310 307 301 294 290